Flag for Switzerland Weather past 2 weeks in Worb, Bern, Switzerland

28 °F


Feels Like: 25 °F
Forecast: 15 / 37 °F
Wind: 3 mph from Southeast

Location: Bern / Belp

Current Time: Nov 27, 2015 at 2:46:57 AM

Latest Report: Nov 27, 2015 at 2:20 AM

Visibility: 5 mi

Pressure: 30.07 "Hg (27.94 "Hg at 583m altitude)

Humidity: 100%

Dew point: 28 °F

Location of WorbLocation

Historic Weather in Worb — Graph


Worb temperature yesterday

Maximum temperature yesterday: 39 °F (at 12:50 PM)
Minimum temperature yesterday: 30 °F (at 11:50 PM)
Average temperature yesterday: 35 °F

Past Weeks' High & Low Weather Summary

High63 °F (Nov 15, 2:20 PM)100% (Nov 12, 1:20 AM)30.48 "Hg (Nov 12, 1:20 AM)
Low19 °F (Nov 24, 4:50 AM)51% (Nov 19, 5:20 PM)29.45 "Hg (Nov 21, 12:50 PM)
Average42 °F88%30.10 "Hg
* Reported Nov 12 1:20 AM — Nov 27 1:50 AM, Worb, Weather by CustomWeather, © 2015

Note: Actual official high and low records may vary slightly from our data, if they occured in-between our weather recording intervals... More about our weather records


Worb weather history for previous 24 hours

Time TempWeatherWind HumidityBarometerVisibility
1:50 AM
Fri, Nov 27
28 °FPassing clouds.5 mph100%30.07 "HgN/A
1:20 AM28 °FChilly.2 mph100%30.07 "Hg5 mi
12:50 AM30 °FClear.2 mph100%30.07 "Hg10 mi
12:20 AM30 °FIce fog.2 mph100%30.07 "Hg1 mi
11:50 PM
Thu, Nov 26
30 °FIce fog.1 mph100%30.07 "Hg2 mi
11:20 PM32 °FChilly.2 mph93%30.07 "Hg4 mi
10:50 PM34 °FPartly cloudy.2 mph93%30.09 "HgN/A
10:20 PM36 °FPassing clouds.2 mph87%30.07 "HgN/A
9:50 PM34 °FPassing clouds.2 mph93%30.09 "HgN/A
9:20 PM34 °FPassing clouds.3 mph100%30.07 "HgN/A
8:50 PM36 °FPartly cloudy.3 mph87%30.09 "HgN/A
8:20 PM36 °FPassing clouds.3 mph87%30.07 "HgN/A
7:50 PM34 °FPassing clouds.3 mph100%30.07 "HgN/A
7:20 PM34 °FPassing clouds.1 mph100%30.07 "HgN/A
6:50 PM34 °FPassing clouds.2 mph93%30.04 "HgN/A
6:20 PM36 °FPassing clouds.1 mph87%30.04 "HgN/A
5:50 PM37 °FPartly cloudy.2 mph87%30.04 "HgN/A
5:20 PM37 °FPartly cloudy.1 mph87%30.01 "HgN/A
4:50 PM37 °FPassing clouds.3 mph93%30.01 "HgN/A
4:20 PM37 °FPartly sunny.2 mph93%30.01 "HgN/A
3:50 PM39 °FBroken clouds.2 mph81%30.01 "HgN/A
3:20 PM39 °FPartly sunny.3 mph81%29.98 "HgN/A
2:50 PM37 °FPassing clouds.3 mph87%29.98 "HgN/A
2:20 PM39 °FBroken clouds.2 mph87%29.98 "HgN/A
1:50 PM39 °FBroken clouds.3 mph87%29.98 "HgN/A
1:20 PM39 °FDrizzle. Broken clouds.3 mph87%29.98 "HgN/A
12:50 PM39 °FDrizzle. Broken clouds.1 mph87%29.98 "HgN/A
12:20 PM37 °FBroken clouds.2 mph93%29.98 "HgN/A
11:50 AM37 °FDrizzle. Broken clouds.1 mph93%29.98 "HgN/A
11:20 AM37 °FDrizzle. Broken clouds.2 mph93%29.98 "HgN/A
10:50 AM37 °FDrizzle. Broken clouds.1 mph93%29.95 "HgN/A
10:20 AM36 °FBroken clouds.No wind100%29.95 "HgN/A
9:50 AM36 °FBroken clouds.3 mph100%29.92 "Hg4 mi
9:20 AM34 °FBroken clouds.No wind100%29.92 "Hg4 mi
8:50 AM34 °FBroken clouds.1 mph100%29.92 "Hg5 mi
8:20 AM34 °FBroken clouds.1 mph100%29.89 "Hg5 mi
7:20 AM34 °FPassing clouds.1 mph100%29.89 "HgN/A
6:50 AM34 °FPassing clouds.2 mph100%29.86 "HgN/A
6:20 AM34 °FPartly cloudy.3 mph100%29.86 "HgN/A
5:50 AM34 °FOvercast.5 mph100%29.86 "HgN/A
5:20 AM34 °FPartly cloudy.5 mph100%29.83 "HgN/A
4:50 AM34 °FSnow flurries. Partly cloudy.5 mph100%29.83 "Hg5 mi
4:20 AM34 °FFog.3 mph100%29.83 "Hg2 mi
3:50 AM34 °FPassing clouds.1 mph100%29.80 "Hg3 mi
3:20 AM34 °FSnow flurries. Passing clouds.1 mph100%29.80 "Hg3 mi
2:50 AM34 °FSnow flurries. Partly cloudy.2 mph100%29.80 "Hg3 mi
2:20 AM34 °FFog.1 mph100%29.77 "Hg2 mi
Weather by CustomWeather, © 2015

See weather overviewHow to use our weather pages